Helicity
23 19 17 11 7 0 -10 -12 -7 -8 -5 -1 1 -6 -9 -14 -32 17 16 -25 -54 -107 -118 -41 29 22 -19 58 2 -11 -67 103 148 152 131 75 68 115 111 104 85 123 108 51 -37
27 25 22 17 11 2 -8 -13 -16 -9 -7 1 -1 -1 -7 -17 8 48 1 -47 -58 -82 -34 -14 0 -56 70 24 68 58 34 138 112 115 103 68 81 117 67 52 65 14 -2 25 35
30 31 28 23 15 7 1 -13 -17 -11 -1 10 1 -5 -1 -44 5 60 5 -31 -50 -74 -78 -41 19 23 44 70 108 116 106 103 92 70 71 70 150 103 116 104 90 -52 -38 -27 43
33 34 29 22 18 11 7 -6 -18 -16 -8 5 3 -4 -20 -3 33 31 6 -31 -57 -24 -55 -13 32 32 58 89 142 115 121 136 86 70 60 141 126 136 185 87 110 57 -24 -8 28
35 31 30 26 22 11 7 0 -11 -15 -16 -2 -6 2 7 29 51 5 -2 -20 -23 -69 3 14 41 15 67 92 117 110 111 85 60 68 66 168 194 148 181 68 68 63 24 10 -3
50 42 38 35 25 15 4 -2 -9 -4 -2 -3 -4 2 59 86 18 19 12 -10 -20 -47 33 33 20 0 32 55 120 130 91 74 117 100 176 128 206 196 48 46 74 33 22 21 4
44 55 47 47 40 26 9 0 -9 -7 -8 -2 -3 26 88 115 12 23 5 22 2 -8 13 33 20 25 42 49 147 80 113 59 166 219 204 125 231 156 71 70 80 22 15 21 24
32 42 47 45 47 28 17 2 -5 -7 -18 -10 1 38 109 60 1 36 22 34 15 -1 -1 19 1 -23 23 95 92 123 196 279 187 182 258 120 156 118 110 12 52 65 14 2 44
73 53 45 41 43 33 17 7 -4 -9 6 5 26 77 103 42 37 27 29 21 -5 13 22 19 4 42 69 71 57 226 278 202 153 183 157 158 157 174 115 57 61 76 25 84 106
167 36 32 38 45 32 19 9 3 -6 3 11 24 58 94 94 53 33 21 15 10 -25 -11 -4 58 82 75 52 105 145 192 189 192 183 163 127 124 189 72 43 87 35 68 136 186
140 97 31 44 41 40 25 13 7 17 71 80 126 117 118 71 40 33 36 25 35 -55 11 64 53 25 26 78 106 136 174 212 68 138 80 80 134 154 5 -33 76 44 72 181 262
138 134 100 49 45 54 21 40 48 56 23 75 136 138 122 66 44 49 78 23 2 25 47 52 54 51 27 85 134 131 192 272 77 31 53 106 232 130 49 -51 14 46 108 208 305
136 142 134 85 46 35 64 57 21 3 29 77 153 115 96 75 62 67 46 19 29 40 38 81 52 31 38 127 92 147 274 164 157 43 80 72 193 111 64 0 53 115 96 181 262
126 177 155 95 81 75 78 55 35 12 65 118 88 83 58 33 68 43 34 29 40 34 13 68 65 55 51 95 88 129 155 130 119 133 203 81 128 112 31 -10 53 133 217 219 306
206 185 268 213 121 132 96 85 37 -11 67 77 59 21 29 58 47 59 30 14 38 18 25 72 55 60 63 52 37 159 84 142 124 104 117 91 104 66 -25 65 62 138 196 195 197
238 213 164 205 166 167 139 80 11 92 84 107 51 52 38 59 62 54 39 23 25 19 48 67 79 53 51 30 137 71 151 114 148 150 192 119 70 69 -20 22 21 64 160 181 213
294 245 231 230 151 154 126 86 49 98 92 90 99 69 81 82 58 68 47 34 31 27 45 50 69 82 47 64 60 108 98 116 202 285 272 36 77 51 37 -26 -97 -32 108 139 177
317 268 271 212 178 217 150 115 97 94 82 103 151 171 156 88 60 61 31 40 47 12 28 36 42 46 45 46 67 49 111 192 198 314 225 88 107 87 36 -73 -87 -59 -20 99 175
390 309 217 196 168 147 173 143 77 122 131 117 125 133 168 148 67 41 47 48 42 27 33 45 66 75 84 48 69 57 127 155 222 254 216 184 82 14 -54 -37 -12 -19 32 137 166
370 239 190 148 163 145 157 132 114 176 161 168 174 133 154 181 130 57 26 50 41 35 27 44 39 56 66 73 86 113 80 190 189 293 281 185 122 -23 -93 13 13 22 75 138 149
318 207 180 154 160 149 122 124 177 208 237 157 150 186 170 202 189 119 65 41 46 35 62 41 54 35 72 76 75 90 112 135 186 207 344 272 224 -96 -110 -119 -32 9 -24 76 137
243 231 164 169 170 163 168 161 189 193 171 149 158 171 134 180 221 130 80 69 50 51 42 54 56 45 79 88 85 91 134 155 261 215 238 268 175 -59 -145 -140 -75 -7 -37 -7 74
342 296 228 207 158 201 176 141 143 143 126 175 182 160 161 132 135 122 104 59 50 42 44 47 48 30 34 78 98 120 175 180 195 213 206 284 214 37 -158 -90 -72 -15 -27 -37 54
350 196 313 229 239 205 185 135 137 157 183 217 188 176 149 176 185 164 102 40 52 65 64 56 48 49 73 95 148 155 192 204 233 254 252 255 126 -11 -97 -14 -9 -18 -2 -29 -23
321 258 221 142 137 181 185 147 144 102 114 149 117 82 126 158 184 150 113 72 51 59 61 64 54 76 64 100 136 156 192 207 265 220 299 193 114 65 -18 -17 -16 -36 -5 6 5
202 228 317 244 182 271 178 107 167 157 133 131 115 114 128 129 127 117 120 63 50 69 70 65 67 82 71 115 109 125 127 163 230 197 160 152 130 138 34 -22 -36 -29 -15 42 5
239 313 268 198 214 214 191 182 124 200 102 165 113 182 154 166 216 165 155 125 81 67 78 79 84 68 51 107 100 79 117 208 211 216 215 248 149 42 -9 -5 -54 -23 -20 23 8
Wind_Speed
52 53 55 56 54 53 49 45 42 42 43 42 38 35 34 26 28 51 55 54 55 63 66 57 55 48 50 56 58 55 66 78 78 76 75 71 74 61 62 60 65 74 85 96 102
51 53 54 55 54 53 51 47 44 43 45 43 40 38 36 30 27 51 59 57 58 58 57 58 61 54 54 60 59 64 66 73 66 65 68 68 65 65 67 64 76 92 85 86 95
50 52 54 54 54 53 52 48 45 43 44 45 43 43 39 32 31 47 63 57 56 55 45 48 52 49 54 56 63 61 65 64 63 61 60 63 59 54 64 62 85 103 103 94 88
50 52 53 54 54 53 52 50 46 43 42 43 44 44 35 33 42 55 62 55 53 46 53 54 63 55 57 64 59 62 57 63 59 55 57 57 51 57 59 65 76 61 90 85 81
51 51 53 54 55 53 53 52 47 45 42 42 44 43 35 33 44 59 57 50 46 46 57 59 63 58 62 62 61 55 62 58 51 50 60 46 50 55 64 80 83 74 84 77 76
53 54 54 55 55 55 54 54 46 44 45 44 43 42 34 40 40 56 52 49 48 47 54 57 55 52 51 53 54 59 56 53 46 52 54 56 52 54 62 83 76 78 77 75 74
55 56 57 57 57 58 56 55 45 42 44 44 44 37 39 35 41 53 51 45 43 46 51 54 49 54 52 56 47 50 56 56 42 51 50 53 48 60 69 75 54 90 60 74 73
53 56 58 59 57 59 57 52 45 43 43 43 40 33 39 32 40 55 52 37 42 39 43 44 40 44 53 47 40 53 56 75 60 48 47 54 53 62 67 92 60 57 38 25 43
48 53 58 60 58 59 55 49 46 42 37 39 35 33 37 31 44 55 48 42 41 33 35 33 35 50 67 68 60 53 77 74 64 45 46 49 49 56 75 90 65 71 41 34 32
48 52 57 59 59 56 52 44 44 43 36 32 32 38 37 39 43 56 49 43 39 32 33 41 46 56 69 75 81 74 74 66 65 54 50 46 43 58 81 86 56 53 44 48 48
44 50 56 58 57 54 47 46 40 35 41 42 45 42 40 49 37 54 50 40 26 28 45 43 62 72 69 62 56 63 64 65 67 49 52 45 44 58 85 92 96 73 66 61 61
40 49 56 56 51 50 43 43 39 37 45 41 41 37 36 44 38 56 55 39 41 46 52 39 62 59 54 56 64 68 68 73 61 56 48 42 43 55 79 94 93 81 57 44 61
35 46 52 53 46 42 38 37 38 39 52 48 41 37 36 41 35 53 50 42 41 46 47 51 53 52 58 63 72 69 71 75 66 56 43 46 41 48 64 93 86 81 62 67 62
32 39 49 42 41 40 39 40 41 44 55 45 37 36 36 29 34 46 48 38 38 44 42 42 55 56 59 65 68 72 70 67 57 62 66 54 59 44 69 94 84 72 63 62 58
30 31 39 36 39 42 43 46 43 39 61 39 36 31 31 30 32 44 46 38 40 42 40 42 53 58 63 62 56 60 58 56 50 55 57 53 50 41 75 82 82 65 56 58 44
25 26 25 33 34 39 41 40 43 53 49 39 35 35 30 34 35 37 43 41 38 40 42 39 42 50 57 53 54 65 65 55 49 56 69 59 49 51 65 85 62 55 51 55 45
22 22 27 30 29 31 36 36 59 46 41 41 40 34 35 38 36 38 38 47 45 45 50 39 44 47 66 62 52 79 82 82 81 79 78 57 52 46 62 82 59 58 54 48 38
14 21 32 29 29 28 29 44 46 42 47 42 42 39 40 39 36 34 34 40 46 44 42 48 49 57 60 61 58 70 77 80 88 86 76 49 54 41 60 69 60 54 48 42 41
8 25 29 30 27 23 35 49 55 54 46 46 45 46 42 37 33 34 38 37 41 45 44 47 42 43 51 51 65 61 74 56 65 57 68 59 47 29 66 66 65 60 52 47 39
19 27 32 26 23 28 37 49 50 36 40 42 46 41 40 33 32 30 33 32 34 39 38 39 43 44 45 39 59 61 58 67 66 82 83 64 55 48 49 67 64 61 53 48 40
25 30 36 25 23 31 38 40 38 33 35 35 43 38 39 34 32 31 28 29 31 35 38 37 40 46 44 52 59 61 63 61 56 59 74 77 59 38 42 68 61 55 50 47 38
24 38 28 20 28 35 42 38 33 36 31 32 33 32 34 30 31 27 27 30 27 31 36 37 37 47 46 43 45 52 57 59 67 66 56 56 56 39 45 62 58 53 50 45 42
29 36 28 25 39 36 33 38 34 34 27 27 27 32 34 30 32 26 26 26 26 31 32 35 40 49 47 43 42 50 53 52 50 51 58 67 56 39 53 63 56 54 51 48 46
32 39 36 34 36 36 32 40 35 30 28 31 28 28 27 29 31 25 24 25 27 30 32 34 37 41 49 45 44 49 46 48 51 58 59 52 50 46 45 60 57 53 50 49 48
37 40 32 38 29 28 29 29 33 28 26 31 32 21 24 28 28 26 23 23 25 26 32 31 38 38 36 37 38 40 41 40 48 42 55 53 53 47 41 48 56 52 50 50 47
35 37 38 40 30 19 27 24 24 32 21 26 27 14 19 29 31 21 19 21 27 23 28 31 38 40 44 38 40 40 34 35 36 37 39 42 48 42 41 53 55 52 50 51 49
37 36 35 39 27 30 35 27 23 21 27 34 5 17 16 25 26 23 26 24 24 24 23 29 34 42 43 42 46 46 42 34 41 39 42 51 46 40 42 50 55 51 51 52 50
Wind_Direction
343 346 348 350 352 354 358 2 5 5 5 11 19 27 30 45 40 13 10 1 358 339 337 6 8 15 18 13 15 13 0 353 353 352 348 352 349 353 350 345 341 329 318 310 303
338 341 344 347 348 350 351 355 359 359 359 6 14 19 24 34 35 8 353 344 344 349 5 9 9 13 11 9 10 9 2 358 359 357 354 354 353 355 351 348 341 326 326 323 304
335 337 339 342 344 347 347 349 352 354 355 3 7 10 23 33 21 5 340 341 347 357 11 13 11 16 10 11 10 9 4 3 1 2 2 359 1 0 357 354 344 308 313 319 311
331 333 335 339 341 343 346 345 346 349 351 357 359 2 22 24 357 352 336 341 350 11 9 11 10 11 8 6 11 7 9 4 4 7 3 2 5 2 6 357 353 350 309 306 309
327 329 331 333 335 338 341 341 343 346 346 350 352 359 15 15 1 342 341 351 1 10 9 9 10 11 7 7 8 10 5 6 6 8 3 11 6 2 3 354 353 353 326 316 316
322 324 326 329 331 333 335 335 341 346 343 343 347 354 12 351 6 347 349 351 0 11 12 12 14 14 15 12 13 10 7 4 13 13 19 10 14 13 6 358 1 358 344 334 316
313 318 320 322 326 327 330 331 338 343 340 340 341 0 1 1 5 349 343 1 7 12 12 16 22 20 17 13 20 11 7 7 16 15 17 13 17 14 13 7 12 354 12 323 317
316 313 317 318 321 323 326 330 336 338 336 336 347 2 351 10 2 344 341 11 7 16 18 25 32 25 17 10 11 12 17 6 13 18 21 18 13 11 15 10 16 15 15 6 297
322 323 313 312 316 316 321 329 333 338 341 346 358 360 352 12 354 337 349 3 5 21 25 29 32 23 15 14 20 18 5 4 8 20 19 21 13 15 5 8 17 13 319 325 303
320 318 315 311 312 317 320 328 332 334 342 353 357 349 350 345 344 332 342 359 14 21 26 27 24 18 17 16 9 7 5 6 6 15 13 12 16 15 2 6 22 324 320 321 319
327 320 315 314 315 320 321 323 337 344 348 340 337 336 340 327 346 331 344 2 29 27 11 22 12 9 12 18 18 9 6 6 8 18 15 18 20 17 359 360 3 334 333 330 329
332 321 313 316 318 321 327 326 336 340 331 339 337 342 346 326 343 323 323 6 12 7 6 20 9 15 16 19 14 12 12 12 11 14 9 15 23 22 9 3 356 339 330 328 331
343 325 316 315 321 323 334 336 339 341 323 326 332 334 340 322 344 330 341 356 6 7 11 15 15 17 17 18 14 15 17 10 7 10 18 22 35 27 20 6 347 344 334 340 337
345 343 320 324 321 320 323 334 338 341 317 325 334 338 336 346 345 342 343 6 10 7 14 18 15 18 19 17 16 15 15 9 14 18 18 29 14 32 17 350 345 338 336 335 332
343 350 339 327 320 316 319 321 327 346 307 329 334 348 353 352 351 342 346 5 5 8 16 15 14 15 18 16 17 16 4 12 22 21 20 29 24 30 12 353 340 336 333 335 332
337 344 351 344 334 319 321 325 326 311 304 316 332 334 337 346 349 345 351 357 8 5 13 20 26 25 18 18 25 14 15 25 32 26 22 24 28 30 25 0 332 333 333 333 333
331 348 345 340 340 336 325 321 305 304 307 313 317 324 328 330 341 346 351 353 357 357 359 16 20 25 16 20 27 18 20 19 20 21 18 27 35 38 25 2 331 332 331 329 328
348 338 345 343 337 348 332 309 301 302 297 311 313 315 314 326 335 348 353 348 357 1 5 5 6 14 17 23 19 22 25 23 14 15 15 31 30 43 27 342 334 333 330 327 329
340 327 344 343 345 350 325 299 298 298 306 306 306 299 307 319 330 336 341 348 355 359 3 5 12 25 23 29 25 23 23 31 24 25 20 28 40 64 4 332 334 335 334 331 328
303 314 329 349 347 326 316 304 301 322 321 315 300 298 302 313 323 338 339 352 358 4 15 15 10 20 24 32 27 30 30 23 25 18 19 20 28 26 22 326 328 332 331 328 325
300 307 322 344 338 321 311 315 321 331 328 318 305 301 299 310 318 331 345 350 360 4 12 19 16 15 25 23 22 24 26 27 29 28 19 16 26 35 30 336 324 325 326 322 319
288 297 321 341 317 321 304 313 331 330 332 327 318 310 301 308 316 328 337 346 2 7 8 17 16 11 17 29 32 29 27 29 23 20 24 21 21 45 33 329 321 319 322 319 317
282 297 317 323 305 311 318 313 323 332 333 332 321 307 302 305 312 325 336 351 360 3 10 17 12 7 12 23 30 25 26 31 31 29 23 19 19 34 18 322 317 317 320 320 317
277 288 301 302 311 308 311 310 314 334 329 328 323 313 309 306 311 327 334 341 352 1 9 15 13 13 8 12 20 18 23 27 27 20 17 14 7 9 15 332 311 313 315 318 318
273 281 290 300 306 308 315 316 312 324 333 318 313 311 310 309 313 318 328 341 350 1 2 13 6 12 15 17 20 19 20 24 21 20 16 14 5 6 20 344 307 304 309 315 316
273 278 285 297 309 308 302 306 310 313 329 324 319 326 316 311 311 322 328 336 342 357 1 7 4 8 9 22 19 14 17 21 20 16 8 7 4 28 22 341 304 303 306 311 313
274 284 284 292 306 301 304 306 314 314 311 314 334 339 325 321 334 342 336 343 349 354 1 4 6 6 8 16 11 17 24 27 24 22 17 11 15 14 14 355 300 301 306 308 309